Time,TemperatureF,DewpointF,PressureIn,WindDirection,WindDirectionDegrees,WindSpeedMPH,WindSpeedGustMPH,Humidity,HourlyPrecipIn,Conditions,Clouds,dailyrainin,SoftwareType,DateUTC
2013-01-09 10:05:00,42.8,41.2,30.10,SE,125,0.0,0.0,94,0.00,,,0.01,Wunderground v.1.15,2013-01-09 18:05:00,
2013-01-09 10:10:00,43.1,41.5,30.10,SE,126,0.0,0.0,94,0.00,,,0.01,Wunderground v.1.15,2013-01-09 18:10:00,
2013-01-09 10:15:00,43.2,41.6,30.10,SE,126,0.0,0.0,94,0.00,,,0.01,Wunderground v.1.15,2013-01-09 18:15:00,
2013-01-09 10:20:00,43.4,41.8,30.10,SE,126,0.0,0.0,94,0.00,,,0.01,Wunderground v.1.15,2013-01-09 18:20:00,
2013-01-09 10:30:00,43.8,42.2,30.09,SE,126,0.0,0.0,94,0.00,,,0.01,Wunderground v.1.15,2013-01-09 18:30:00,
2013-01-09 10:35:00,44.0,42.4,30.09,SE,126,0.0,0.0,94,0.00,,,0.01,Wunderground v.1.15,2013-01-09 18:35:00,
2013-01-09 10:40:00,44.2,42.6,30.08,SE,126,0.0,0.0,94,0.00,,,0.01,Wunderground v.1.15,2013-01-09 18:40:00,
2013-01-09 10:45:00,44.3,42.7,30.08,SE,126,0.0,0.0,94,0.00,,,0.01,Wunderground v.1.15,2013-01-09 18:45:00,
2013-01-09 10:50:00,44.5,42.9,30.09,SE,126,0.0,0.0,94,0.00,,,0.01,Wunderground v.1.15,2013-01-09 18:50:00,
2013-01-09 10:55:00,44.6,43.0,30.08,SE,126,0.0,0.0,94,0.00,,,0.01,Wunderground v.1.15,2013-01-09 18:55:00,
2013-01-09 11:00:00,44.8,43.2,30.08,SSE,148,0.0,1.0,94,0.00,,,0.01,Wunderground v.1.15,2013-01-09 19:00:00,
2013-01-09 11:05:00,44.8,43.2,30.08,SSE,148,0.0,1.0,94,0.00,,,0.01,Wunderground v.1.15,2013-01-09 19:05:00,
2013-01-09 11:10:00,44.9,43.3,30.08,South,182,0.0,3.0,94,0.00,,,0.01,Wunderground v.1.15,2013-01-09 19:10:00,
2013-01-09 11:15:00,44.9,43.3,30.08,South,184,1.0,3.0,94,0.00,,,0.01,Wunderground v.1.15,2013-01-09 19:15:00,
2013-01-09 11:20:00,44.8,43.2,30.07,South,187,2.0,3.0,94,0.00,,,0.01,Wunderground v.1.15,2013-01-09 19:20:00,
2013-01-09 11:25:00,44.8,43.2,30.06,South,187,1.0,3.0,94,0.00,,,0.01,Wunderground v.1.15,2013-01-09 19:25:00,
2013-01-09 11:30:00,45.0,43.4,30.05,SSW,194,1.0,1.0,94,0.00,,,0.01,Wunderground v.1.15,2013-01-09 19:30:00,
2013-01-09 11:35:00,45.0,43.4,30.05,South,184,1.0,1.0,94,0.00,,,0.01,Wunderground v.1.15,2013-01-09 19:35:00,
2013-01-09 11:40:00,45.1,43.5,30.05,SSE,165,1.0,1.0,94,0.00,,,0.01,Wunderground v.1.15,2013-01-09 19:40:00,
2013-01-09 11:45:00,45.2,43.6,30.04,SSE,152,1.0,1.0,94,0.00,,,0.01,Wunderground v.1.15,2013-01-09 19:45:00,
2013-01-09 11:50:00,45.3,43.7,30.04,SSE,159,1.0,2.0,94,0.00,,,0.01,Wunderground v.1.15,2013-01-09 19:50:00,
2013-01-09 11:55:00,45.3,43.7,30.04,SSE,165,2.0,2.0,94,0.00,,,0.01,Wunderground v.1.15,2013-01-09 19:55:00,
2013-01-09 12:00:00,45.3,43.7,30.03,South,178,2.0,2.0,94,0.00,,,0.01,Wunderground v.1.15,2013-01-09 20:00:00,
2013-01-09 12:05:00,45.4,43.8,30.02,SSW,196,1.0,2.0,94,0.00,,,0.01,Wunderground v.1.15,2013-01-09 20:05:00,
2013-01-09 12:10:00,45.5,43.9,30.02,SSE,168,1.0,3.0,94,0.00,,,0.01,Wunderground v.1.15,2013-01-09 20:10:00,
2013-01-09 12:15:00,45.7,44.1,30.02,SSE,154,1.0,3.0,94,0.00,,,0.01,Wunderground v.1.15,2013-01-09 20:15:00,
2013-01-09 12:20:00,45.8,44.2,30.01,SSE,150,1.0,1.0,94,0.00,,,0.01,Wunderground v.1.15,2013-01-09 20:20:00,
2013-01-09 12:25:00,45.8,44.2,30.02,SSW,192,1.0,1.0,94,0.00,,,0.01,Wunderground v.1.15,2013-01-09 20:25:00,
2013-01-09 12:35:00,46.0,44.4,30.01,South,179,1.0,3.0,94,0.00,,,0.01,Wunderground v.1.15,2013-01-09 20:35:00,
2013-01-09 12:40:00,46.0,44.1,30.01,South,178,1.0,2.0,93,0.00,,,0.01,Wunderground v.1.15,2013-01-09 20:40:00,
2013-01-09 12:45:00,46.1,44.2,30.01,South,176,1.0,2.0,93,0.00,,,0.01,Wunderground v.1.15,2013-01-09 20:45:00,
2013-01-09 12:50:00,46.2,44.3,30.01,East,92,1.0,4.0,93,0.00,,,0.01,Wunderground v.1.15,2013-01-09 20:50:00,
2013-01-09 12:55:00,46.2,44.3,30.01,SSW,198,1.0,4.0,93,0.00,,,0.01,Wunderground v.1.15,2013-01-09 20:55:00,
2013-01-09 13:00:00,46.3,44.4,30.01,South,185,1.0,1.0,93,0.00,,,0.01,Wunderground v.1.15,2013-01-09 21:00:00,
2013-01-09 13:05:00,46.4,44.5,30.01,South,183,1.0,4.0,93,0.00,,,0.01,Wunderground v.1.15,2013-01-09 21:05:00,
2013-01-09 13:10:00,46.3,44.4,30.00,SSE,157,2.0,3.0,93,0.00,,,0.01,Wunderground v.1.15,2013-01-09 21:10:00,
2013-01-09 13:15:00,46.3,44.4,30.00,SSE,165,1.0,3.0,93,0.00,,,0.01,Wunderground v.1.15,2013-01-09 21:15:00,
2013-01-09 13:20:00,46.3,44.4,30.01,South,172,1.0,2.0,93,0.00,,,0.01,Wunderground v.1.15,2013-01-09 21:20:00,
2013-01-09 13:25:00,46.3,44.1,30.00,SE,142,1.0,3.0,92,0.00,,,0.01,Wunderground v.1.15,2013-01-09 21:25:00,
2013-01-09 13:30:00,46.3,44.1,29.99,SE,130,1.0,1.0,92,0.00,,,0.01,Wunderground v.1.15,2013-01-09 21:30:00,
2013-01-09 13:35:00,46.4,44.2,29.99,SSE,153,1.0,3.0,92,0.00,,,0.01,Wunderground v.1.15,2013-01-09 21:35:00,
2013-01-09 13:40:00,46.5,44.3,29.99,South,173,1.0,3.0,92,0.00,,,0.01,Wunderground v.1.15,2013-01-09 21:40:00,
2013-01-09 13:45:00,46.7,44.5,29.98,South,169,1.0,3.0,92,0.00,,,0.01,Wunderground v.1.15,2013-01-09 21:45:00,
2013-01-09 13:50:00,46.8,44.6,29.98,East,91,1.0,2.0,92,0.00,,,0.01,Wunderground v.1.15,2013-01-09 21:50:00,
2013-01-09 13:55:00,46.9,44.7,29.98,South,179,1.0,3.0,92,0.00,,,0.01,Wunderground v.1.15,2013-01-09 21:55:00,
2013-01-09 14:00:00,47.0,44.8,29.98,South,183,1.0,4.0,92,0.00,,,0.01,Wunderground v.1.15,2013-01-09 22:00:00,
2013-01-09 14:05:00,47.1,44.9,29.98,SE,145,2.0,4.0,92,0.00,,,0.01,Wunderground v.1.15,2013-01-09 22:05:00,
2013-01-09 14:10:00,47.2,45.0,29.98,South,173,2.0,2.0,92,0.00,,,0.01,Wunderground v.1.15,2013-01-09 22:10:00,
2013-01-09 14:15:00,47.4,45.2,29.98,SSE,165,1.0,2.0,92,0.00,,,0.01,Wunderground v.1.15,2013-01-09 22:15:00,
2013-01-09 14:20:00,47.5,45.3,29.98,SSE,159,1.0,1.0,92,0.00,,,0.01,Wunderground v.1.15,2013-01-09 22:20:00,
2013-01-09 14:25:00,47.6,45.4,29.98,SSE,162,1.0,1.0,92,0.00,,,0.01,Wunderground v.1.15,2013-01-09 22:25:00,
2013-01-09 14:30:00,47.8,45.6,29.98,South,169,0.0,0.0,92,0.00,,,0.01,Wunderground v.1.15,2013-01-09 22:30:00,
2013-01-09 14:35:00,47.9,45.7,29.97,ESE,119,0.0,0.0,92,0.00,,,0.01,Wunderground v.1.15,2013-01-09 22:35:00,
2013-01-09 14:40:00,48.1,45.6,29.97,ESE,102,0.0,0.0,91,0.00,,,0.01,Wunderground v.1.15,2013-01-09 22:40:00,
2013-01-09 14:45:00,48.1,45.9,29.97,SSE,153,1.0,1.0,92,0.00,,,0.01,Wunderground v.1.15,2013-01-09 22:45:00,
2013-01-09 14:50:00,48.2,46.0,29.97,SSE,153,0.0,0.0,92,0.00,,,0.01,Wunderground v.1.15,2013-01-09 22:50:00,
2013-01-09 14:55:00,48.4,46.2,29.96,SSE,152,0.0,0.0,92,0.00,,,0.01,Wunderground v.1.15,2013-01-09 22:55:00,
2013-01-09 15:00:00,48.6,46.4,29.97,South,172,0.0,0.0,92,0.00,,,0.01,Wunderground v.1.15,2013-01-09 23:00:00,
2013-01-09 15:05:00,49.0,46.8,29.96,South,180,1.0,3.0,92,0.00,,,0.01,Wunderground v.1.15,2013-01-09 23:05:00,
2013-01-09 15:15:00,49.5,47.3,29.97,South,187,2.0,2.0,92,0.00,,,0.01,Wunderground v.1.15,2013-01-09 23:15:00,
2013-01-09 15:20:00,49.6,47.1,29.97,SSW,207,1.0,2.0,91,0.00,,,0.01,Wunderground v.1.15,2013-01-09 23:20:00,
2013-01-09 15:25:00,49.7,47.2,29.96,SSW,192,1.0,2.0,91,0.00,,,0.01,Wunderground v.1.15,2013-01-09 23:25:00,
2013-01-09 15:30:00,49.8,47.3,29.97,South,190,1.0,1.0,91,0.00,,,0.01,Wunderground v.1.15,2013-01-09 23:30:00,
2013-01-09 15:35:00,49.9,47.4,29.97,SSW,196,1.0,3.0,91,0.00,,,0.01,Wunderground v.1.15,2013-01-09 23:35:00,
2013-01-09 15:40:00,50.0,47.2,29.97,South,180,1.0,1.0,90,0.00,,,0.01,Wunderground v.1.15,2013-01-09 23:40:00,
2013-01-09 15:45:00,50.0,47.2,29.97,SSW,192,1.0,1.0,90,0.00,,,0.01,Wunderground v.1.15,2013-01-09 23:45:00,
2013-01-09 15:50:00,50.1,47.3,29.96,SSW,193,1.0,2.0,90,0.00,,,0.01,Wunderground v.1.15,2013-01-09 23:50:00,
2013-01-09 15:55:00,50.3,47.5,29.96,South,183,2.0,2.0,90,0.00,,,0.01,Wunderground v.1.15,2013-01-09 23:55:00,
2013-01-09 16:00:00,50.4,47.6,29.96,SSW,194,2.0,2.0,90,0.00,,,0.01,Wunderground v.1.15,2013-01-10 00:00:00,
2013-01-09 16:05:00,50.5,47.7,29.97,SSW,192,2.0,2.0,90,0.00,,,0.01,Wunderground v.1.15,2013-01-10 00:05:00,
2013-01-09 16:10:00,50.5,47.4,29.97,SSW,192,1.0,1.0,89,0.00,,,0.01,Wunderground v.1.15,2013-01-10 00:10:00,
2013-01-09 16:15:00,50.6,47.5,29.96,South,182,1.0,3.0,89,0.00,,,0.01,Wunderground v.1.15,2013-01-10 00:15:00,
2013-01-09 16:20:00,50.7,47.6,29.96,SW,215,1.0,1.0,89,0.00,,,0.01,Wunderground v.1.15,2013-01-10 00:20:00,
2013-01-09 16:25:00,50.7,47.9,29.96,SW,227,1.0,7.0,90,0.00,,,0.01,Wunderground v.1.15,2013-01-10 00:25:00,
2013-01-09 16:35:00,50.9,48.1,29.95,SW,227,2.0,4.0,90,0.00,,,0.01,Wunderground v.1.15,2013-01-10 00:35:00,
2013-01-09 16:40:00,51.0,48.2,29.95,South,187,2.0,5.0,90,0.00,,,0.01,Wunderground v.1.15,2013-01-10 00:40:00,
2013-01-09 16:45:00,51.0,47.9,29.95,SSW,198,3.0,5.0,89,0.00,,,0.01,Wunderground v.1.15,2013-01-10 00:45:00,
2013-01-09 16:50:00,51.0,47.9,29.95,SSW,202,3.0,3.0,89,0.00,,,0.01,Wunderground v.1.15,2013-01-10 00:50:00,
2013-01-09 16:55:00,51.1,48.0,29.95,SW,216,2.0,4.0,89,0.00,,,0.01,Wunderground v.1.15,2013-01-10 00:55:00,
2013-01-09 17:00:00,51.1,48.0,29.95,South,182,2.0,4.0,89,0.00,,,0.01,Wunderground v.1.15,2013-01-10 01:00:00,
2013-01-09 17:05:00,51.1,48.0,29.95,SSW,212,2.0,4.0,89,0.00,,,0.01,Wunderground v.1.15,2013-01-10 01:05:00,
2013-01-09 17:10:00,51.0,47.9,29.95,SSW,207,2.0,2.0,89,0.00,,,0.01,Wunderground v.1.15,2013-01-10 01:10:00,
2013-01-09 17:15:00,51.0,47.9,29.95,South,191,1.0,2.0,89,0.00,,,0.01,Wunderground v.1.15,2013-01-10 01:15:00,
2013-01-09 17:20:00,51.0,48.2,29.95,SSW,202,1.0,1.0,90,0.00,,,0.01,Wunderground v.1.15,2013-01-10 01:20:00,
2013-01-09 17:25:00,51.0,48.2,29.95,South,185,2.0,2.0,90,0.00,,,0.01,Wunderground v.1.15,2013-01-10 01:25:00,
2013-01-09 17:30:00,50.9,48.1,29.95,South,179,2.0,2.0,90,0.00,,,0.01,Wunderground v.1.15,2013-01-10 01:30:00,
2013-01-09 17:35:00,50.8,48.0,29.95,SSW,205,1.0,2.0,90,0.00,,,0.01,Wunderground v.1.15,2013-01-10 01:35:00,
2013-01-09 17:40:00,50.7,47.9,29.95,SW,220,0.0,0.0,90,0.00,,,0.01,Wunderground v.1.15,2013-01-10 01:40:00,
2013-01-09 17:45:00,50.6,47.8,29.95,SW,220,0.0,1.0,90,0.00,,,0.01,Wunderground v.1.15,2013-01-10 01:45:00,
2013-01-09 17:50:00,50.3,47.2,29.95,NW,306,1.0,1.0,89,0.00,,,0.01,Wunderground v.1.15,2013-01-10 01:50:00,
2013-01-09 17:55:00,49.9,46.5,29.95,NW,306,1.0,1.0,88,0.00,,,0.01,Wunderground v.1.15,2013-01-10 01:55:00,
2013-01-09 18:00:00,49.5,45.5,29.95,West,266,1.0,2.0,86,0.00,,,0.01,Wunderground v.1.15,2013-01-10 02:00:00,
2013-01-09 18:05:00,49.2,44.6,29.95,SSW,194,1.0,2.0,84,0.00,,,0.01,Wunderground v.1.15,2013-01-10 02:05:00,
2013-01-09 18:10:00,49.0,43.7,29.95,North,349,1.0,1.0,82,0.00,,,0.01,Wunderground v.1.15,2013-01-10 02:10:00,
2013-01-09 18:15:00,48.8,42.6,29.95,NW,321,1.0,1.0,79,0.00,,,0.01,Wunderground v.1.15,2013-01-10 02:15:00,
2013-01-09 18:20:00,48.7,41.5,29.95,WSW,245,0.0,0.0,76,0.00,,,0.01,Wunderground v.1.15,2013-01-10 02:20:00,
2013-01-09 18:25:00,48.6,40.0,29.95,West,272,1.0,2.0,72,0.00,,,0.01,Wunderground v.1.15,2013-01-10 02:25:00,
2013-01-09 18:30:00,48.6,38.5,29.95,SW,217,1.0,1.0,68,0.00,,,0.01,Wunderground v.1.15,2013-01-10 02:30:00,
2013-01-09 18:35:00,48.6,38.9,29.95,South,187,1.0,3.0,69,0.00,,,0.01,Wunderground v.1.15,2013-01-10 02:35:00,
2013-01-09 18:40:00,48.4,37.6,29.95,WSW,248,2.0,2.0,66,0.00,,,0.01,Wunderground v.1.15,2013-01-10 02:40:00,
2013-01-09 18:45:00,48.4,37.2,29.96,West,279,2.0,2.0,65,0.00,,,0.01,Wunderground v.1.15,2013-01-10 02:45:00,
2013-01-09 18:50:00,48.4,37.6,29.96,WSW,254,1.0,1.0,66,0.00,,,0.01,Wunderground v.1.15,2013-01-10 02:50:00,
2013-01-09 18:55:00,48.3,37.1,29.97,SW,214,1.0,3.0,65,0.00,,,0.01,Wunderground v.1.15,2013-01-10 02:55:00,
2013-01-09 19:05:00,48.3,36.3,29.97,South,189,2.0,2.0,63,0.00,,,0.01,Wunderground v.1.15,2013-01-10 03:05:00,
2013-01-09 19:10:00,48.3,35.9,29.97,WSW,249,2.0,2.0,62,0.00,,,0.01,Wunderground v.1.15,2013-01-10 03:10:00,
2013-01-09 19:15:00,48.3,36.3,29.97,SSW,197,1.0,2.0,63,0.00,,,0.01,Wunderground v.1.15,2013-01-10 03:15:00,
2013-01-09 19:25:00,48.3,36.7,29.97,SW,217,0.0,1.0,64,0.00,,,0.01,Wunderground v.1.15,2013-01-10 03:25:00,
2013-01-09 19:30:00,48.2,37.0,29.97,SW,221,0.0,0.0,65,0.00,,,0.01,Wunderground v.1.15,2013-01-10 03:30:00,
2013-01-09 19:35:00,48.1,37.7,29.98,SSW,207,0.0,0.0,67,0.00,,,0.01,Wunderground v.1.15,2013-01-10 03:35:00,
2013-01-09 19:40:00,48.1,38.0,29.97,WSW,255,0.0,2.0,68,0.00,,,0.01,Wunderground v.1.15,2013-01-10 03:40:00,
2013-01-09 19:45:00,47.9,38.2,29.98,SW,234,1.0,2.0,69,0.00,,,0.01,Wunderground v.1.15,2013-01-10 03:45:00,
2013-01-09 19:50:00,47.8,38.1,29.97,SW,217,2.0,2.0,69,0.00,,,0.01,Wunderground v.1.15,2013-01-10 03:50:00,
2013-01-09 19:55:00,47.8,38.1,29.97,WSW,238,1.0,3.0,69,0.00,,,0.01,Wunderground v.1.15,2013-01-10 03:55:00,
2013-01-09 20:00:00,47.6,37.6,29.97,WSW,241,2.0,2.0,68,0.00,,,0.01,Wunderground v.1.15,2013-01-10 04:00:00,
2013-01-09 20:05:00,47.4,37.0,29.97,SSW,213,2.0,4.0,67,0.00,,,0.01,Wunderground v.1.15,2013-01-10 04:05:00,
2013-01-09 20:10:00,47.3,36.9,29.98,West,267,2.0,2.0,67,0.00,,,0.01,Wunderground v.1.15,2013-01-10 04:10:00,
2013-01-09 20:15:00,47.1,36.7,29.98,West,269,2.0,4.0,67,0.00,,,0.01,Wunderground v.1.15,2013-01-10 04:15:00,
2013-01-09 20:20:00,46.8,35.6,29.98,West,281,2.0,2.0,65,0.00,,,0.01,Wunderground v.1.15,2013-01-10 04:20:00,
2013-01-09 20:25:00,46.7,35.6,29.99,West,260,2.0,2.0,65,0.00,,,0.01,Wunderground v.1.15,2013-01-10 04:25:00,
2013-01-09 20:30:00,46.5,35.4,29.99,West,260,1.0,1.0,65,0.00,,,0.01,Wunderground v.1.15,2013-01-10 04:30:00,
2013-01-09 20:35:00,46.3,35.2,30.00,West,261,0.0,1.0,65,0.00,,,0.01,Wunderground v.1.15,2013-01-10 04:35:00,
2013-01-09 20:40:00,46.1,35.0,30.00,West,275,0.0,0.0,65,0.00,,,0.01,Wunderground v.1.15,2013-01-10 04:40:00,
2013-01-09 20:45:00,45.9,35.2,29.99,West,275,0.0,0.0,66,0.00,,,0.01,Wunderground v.1.15,2013-01-10 04:45:00,
2013-01-09 20:50:00,45.6,34.9,30.00,West,275,0.0,0.0,66,0.00,,,0.01,Wunderground v.1.15,2013-01-10 04:50:00,
2013-01-09 20:55:00,45.2,34.1,30.00,WSW,256,1.0,1.0,65,0.00,,,0.01,Wunderground v.1.15,2013-01-10 04:55:00,
2013-01-09 21:00:00,45.0,34.3,30.00,SW,229,1.0,2.0,66,0.00,,,0.01,Wunderground v.1.15,2013-01-10 05:00:00,
2013-01-09 21:05:00,44.9,33.8,30.00,SSW,207,1.0,2.0,65,0.00,,,0.01,Wunderground v.1.15,2013-01-10 05:05:00,
2013-01-09 21:15:00,45.0,33.9,30.01,SW,234,2.0,5.0,65,0.00,,,0.01,Wunderground v.1.15,2013-01-10 05:15:00,
2013-01-09 21:20:00,45.1,33.6,30.01,South,175,1.0,3.0,64,0.00,,,0.01,Wunderground v.1.15,2013-01-10 05:20:00,
2013-01-09 21:25:00,45.2,33.7,30.01,WSW,250,2.0,3.0,64,0.00,,,0.01,Wunderground v.1.15,2013-01-10 05:25:00,
2013-01-09 21:35:00,45.2,33.7,30.02,SW,230,2.0,3.0,64,0.00,,,0.01,Wunderground v.1.15,2013-01-10 05:35:00,
2013-01-09 21:40:00,45.1,33.6,30.02,WNW,287,1.0,1.0,64,0.00,,,0.01,Wunderground v.1.15,2013-01-10 05:40:00,
2013-01-09 21:45:00,45.0,33.5,30.02,West,276,1.0,3.0,64,0.00,,,0.01,Wunderground v.1.15,2013-01-10 05:45:00,
2013-01-09 21:50:00,45.0,33.5,30.02,WSW,245,1.0,1.0,64,0.00,,,0.01,Wunderground v.1.15,2013-01-10 05:50:00,
2013-01-09 21:55:00,44.9,33.5,30.02,West,278,1.0,2.0,64,0.00,,,0.01,Wunderground v.1.15,2013-01-10 05:55:00,
2013-01-09 22:00:00,44.7,33.3,30.02,WSW,245,2.0,2.0,64,0.00,,,0.01,Wunderground v.1.15,2013-01-10 06:00:00,
2013-01-09 22:05:00,44.7,33.3,30.02,SW,226,2.0,2.0,64,0.00,,,0.01,Wunderground v.1.15,2013-01-10 06:05:00,
2013-01-09 22:10:00,44.6,32.8,30.02,WSW,244,2.0,2.0,63,0.00,,,0.01,Wunderground v.1.15,2013-01-10 06:10:00,